Beaver, WV

8:42 PM EST on January 23, 2017 (GMT -0500)
Raleigh County Memorial

Weather History for KBKW - October, 2014

Change the Weather History Date:

Friday, October 31, 2014

  Actual Average Record
Temperature  
Mean Temperature 39 °F 49 °F  
Max Temperature 46 °F 59 °F 83 °F (1950)
Min Temperature 31 °F 39 °F 18 °F (1906)
Degree Days  
Heating Degree Days 26 16  
Month to date heating degree days 356 373  
Since 1 July heating degree days 444 506  
Cooling Degree Days 0 0  
Month to date cooling degree days 0 6  
Year to date cooling degree days 602 556  
Moisture  
Dew Point 33 °F    
Average Humidity 76    
Maximum Humidity 92    
Minimum Humidity 60    
Precipitation  
Precipitation 0.20 in 0.09 in 2.00 in (1921)
Month to date precipitation 5.30 2.57  
Year to date precipitation 32.02 35.24  
Snow  
Snow 0.00 in - - ()
Month to date snowfall 0.0  
Since 1 September snowfall 0.0  
Snow Depth 0.00 in    
Sea Level Pressure  
Sea Level Pressure 29.92 in    
Wind  
Wind Speed 4 mph (WNW)    
Max Wind Speed 13 mph    
Max Gust Speed 15 mph    
Visibility 9 miles    
Events Rain    
T = Trace of Precipitation, MM = Missing Value Source: NWS Daily Summary

Daily Weather History Graph

Daily Weather History Graph

Search for Another Location

Airport or City:

Trip Planner

Search our weather history database for the weather conditions in past years. The results will help you decide how hot, cold, wet, or windy it might be!

Date:

Astronomy

Oct. 31, 2014 Rise Set
Actual Time 7:48 AM EDT 6:26 PM EDT
Civil Twilight 7:21 AM EDT 6:53 PM EDT
Nautical Twilight 6:50 AM EDT 7:24 PM EDT
Astronomical Twilight 6:20 AM EDT 7:55 PM EDT
Moon 2:33 PM EDT (10/31) 12:43 AM EDT (10/31)
Length of Visible Light 11h 32m
Length of Day
10h 38m
First Quarter, 56% of the Moon is Illuminated
Oct 31
First Quarter
Nov 6
Full
Nov 14
Last Quarter
Nov 22
New
Nov 29
First Quarter

Hourly Weather History & Observations

Time (EDT) Temp. Windchill Dew Point Humidity Pressure Visibility Wind Dir Wind Speed Gust Speed Precip Events Conditions
12:51 AM 30.9 °F - 28.0 °F 89% 30.07 in 10.0 mi Calm Calm - N/A   Clear
1:51 AM 33.1 °F - 28.9 °F 85% 30.05 in 10.0 mi Calm Calm - N/A   Clear
2:51 AM 32.0 °F - 28.9 °F 88% 30.04 in 10.0 mi Calm Calm - N/A   Scattered Clouds
3:51 AM 30.9 °F 25.2 °F 28.0 °F 89% 30.03 in 10.0 mi SE 5.8 mph - N/A   Partly Cloudy
4:51 AM 36.0 °F 30.3 °F 30.0 °F 79% 30.00 in 10.0 mi SSE 6.9 mph - N/A   Clear
5:51 AM 36.0 °F 30.3 °F 30.0 °F 79% 29.99 in 10.0 mi SSE 6.9 mph - N/A   Clear
6:51 AM 30.9 °F - 28.0 °F 89% 30.00 in 10.0 mi Calm Calm - N/A   Scattered Clouds
7:51 AM 32.0 °F - 28.0 °F 85% 30.00 in 9.0 mi Calm Calm - N/A   Mostly Cloudy
8:51 AM 33.1 °F - 30.0 °F 89% 30.01 in 9.0 mi Calm Calm - N/A   Overcast
9:51 AM 37.9 °F - 32.0 °F 79% 30.00 in 10.0 mi Calm Calm - N/A   Overcast
10:51 AM 43.0 °F - 33.1 °F 68% 29.98 in 10.0 mi Calm Calm - N/A   Mostly Cloudy
11:51 AM 43.0 °F 41.3 °F 33.1 °F 68% 29.96 in 10.0 mi West 3.5 mph - N/A   Overcast
12:51 PM 44.1 °F 40.8 °F 34.0 °F 68% 29.93 in 10.0 mi West 5.8 mph - N/A   Overcast
1:13 PM 45.0 °F 41.8 °F 34.0 °F 65% 29.87 in 10.0 mi SW 5.8 mph - N/A   Overcast
1:51 PM 45.0 °F 42.6 °F 33.1 °F 63% 29.90 in 10.0 mi West 4.6 mph - N/A   Overcast
2:06 PM 45.0 °F 43.5 °F 33.1 °F 63% 29.85 in 10.0 mi Variable 3.5 mph - N/A   Overcast
2:51 PM 46.0 °F 41.9 °F 33.1 °F 61% 29.88 in 10.0 mi West 8.1 mph - N/A   Overcast
3:34 PM 45.0 °F 41.2 °F 33.1 °F 63% 29.82 in 10.0 mi West 6.9 mph - N/A   Overcast
3:51 PM 44.1 °F 39.5 °F 33.1 °F 65% 29.87 in 10.0 mi West 8.1 mph - 0.00 in Rain Light Rain
4:28 PM 42.1 °F 37.7 °F 35.1 °F 76% 29.82 in 10.0 mi West 6.9 mph - 0.00 in Rain Light Rain
4:51 PM 41.0 °F 36.4 °F 35.1 °F 79% 29.87 in 4.0 mi WNW 6.9 mph - 0.02 in Rain Light Rain
5:30 PM 39.9 °F 36.7 °F 36.0 °F 86% 29.83 in 7.0 mi WNW 4.6 mph - 0.02 in Rain Light Rain
5:43 PM 39.0 °F 34.8 °F 36.0 °F 89% 29.83 in 5.0 mi WNW 5.8 mph - 0.03 in Rain Light Rain
5:51 PM 39.0 °F 34.8 °F 36.0 °F 89% 29.88 in 4.0 mi WNW 5.8 mph - 0.03 in Rain Light Rain
6:33 PM 39.0 °F - 35.1 °F 86% 29.83 in 5.0 mi Calm Calm - 0.04 in Rain Light Rain
6:51 PM 37.9 °F 33.5 °F 35.1 °F 89% 29.90 in 5.0 mi WNW 5.8 mph - 0.05 in Rain Light Rain
7:09 PM 37.9 °F 35.5 °F 35.1 °F 89% 29.83 in 6.0 mi WNW 3.5 mph - 0.02 in Rain Light Rain
7:39 PM 37.9 °F 34.4 °F 35.1 °F 89% 29.84 in 8.0 mi West 4.6 mph - 0.05 in Rain Light Rain
7:51 PM 37.9 °F 35.5 °F 35.1 °F 89% 29.90 in 10.0 mi WNW 3.5 mph - 0.05 in Rain Light Rain
8:51 PM 37.9 °F 35.5 °F 35.1 °F 89% 29.89 in 9.0 mi North 3.5 mph - 0.02 in Rain Light Rain
9:51 PM 37.0 °F 34.5 °F 34.0 °F 89% 29.88 in 10.0 mi NNE 3.5 mph - 0.02 in Rain Light Rain
10:14 PM 37.0 °F 34.5 °F 34.0 °F 89% 29.82 in 10.0 mi North 3.5 mph - 0.00 in Rain Light Rain
10:41 PM 37.0 °F 33.3 °F 34.0 °F 89% 29.82 in 10.0 mi NNW 4.6 mph - 0.00 in Rain Light Rain
10:51 PM 37.0 °F 33.3 °F 34.0 °F 89% 29.86 in 10.0 mi NNW 4.6 mph - 0.00 in   Overcast
11:51 PM 37.0 °F 32.4 °F 34.0 °F 89% 29.86 in 6.0 mi North 5.8 mph - 0.00 in   Overcast